User: anonymous   Login
Location: Unspecified
(0.0000°N, 0.0000°E)
Time: 08:15:46
(UTC+02:00)
Language:

Cosmos 1703 - Orbit

View from above orbital plane
View from above orbital plane
View from above satellite
View from above satellite

Ground track
Ground track

The orbit data is extracted from the following two-line orbital elements,

1 16262U 85108A   16236.97442020  .00000451  00000-0  26006-4 0  9993
2 16262  82.4858 181.7440 0009421 214.5669 145.4949 15.09899110674048
Epoch (UTC): 23 August 2016 23:23:09
Eccentricity: 0.0009421
inclination: 82.4858°
perigee height: 530 km
apogee height: 543 km
right ascension of ascending node: 181.7440°
argument of perigee: 214.5669°
revolutions per day: 15.09899110
mean anomaly at epoch: 145.4949°
orbit number at epoch: 67404

The dashed part of the orbit path shows where the satellite is in the earth's shadow,  

DLR